Vorticity
nan nan nan nan nan nan nan nan nan nan nan nan nan nan nan nan nan nan nan nan nan nan
nan 7 8 9 6 7 8 10 11 11 9 8 8 8 7 8 9 8 8 9 8 nan
nan 7 6 8 9 7 8 9 9 10 9 9 9 9 7 7 9 8 8 10 9 nan
nan 9 8 8 9 8 9 9 8 9 9 9 8 8 7 8 9 7 7 8 9 nan
nan 9 8 7 9 9 8 9 9 9 9 9 9 9 8 7 8 8 7 7 8 nan
nan 8 8 8 8 9 8 9 9 9 9 9 9 8 9 9 9 9 8 8 7 nan
nan 8 8 9 8 9 8 8 9 8 8 9 9 9 9 9 8 9 9 9 8 nan
nan 9 9 9 9 9 9 8 9 8 8 9 8 9 11 9 9 8 8 8 9 nan
nan 10 9 10 10 9 9 9 10 9 10 6 9 15 11 6 7 10 9 8 10 nan
nan 9 9 9 9 9 9 9 9 9 10 9 11 16 12 4 5 10 10 10 10 nan
nan 9 9 9 9 8 10 8 8 11 9 8 13 15 12 7 3 9 11 12 10 nan
nan 10 9 9 8 8 9 10 9 10 12 9 12 14 9 7 6 10 12 11 10 nan
nan 10 9 10 9 8 9 10 11 12 13 10 11 13 13 3 5 10 10 11 14 nan
nan nan nan nan nan nan nan nan nan nan nan nan nan nan nan nan nan nan nan nan nan nan
CAPE
452 437 438 326 403 400 528 663 864 814 690 294 37 9 0 0 0 0 0 0 0 0
464 532 514 355 283 384 498 675 714 819 774 480 64 6 0 0 0 0 0 0 0 0
592 663 616 350 289 385 438 759 620 809 808 559 69 7 0 0 0 0 0 0 0 0
743 753 671 416 434 414 477 551 523 742 775 544 161 5 2 0 0 0 0 0 0 0
824 801 755 602 583 557 465 399 464 555 673 536 266 80 37 21 14 0 0 0 0 0
923 848 842 774 777 664 581 354 356 490 557 431 268 85 99 87 61 11 0 0 0 0
1009 977 1019 1020 981 835 796 422 409 415 577 462 294 196 121 130 110 70 41 11 0 0
900 932 984 1068 1158 1190 1115 829 485 490 533 541 410 278 215 140 120 128 100 103 61 4
1067 1067 1080 1059 1032 1123 1280 1259 742 600 588 604 581 352 132 182 179 138 140 136 94 71
1236 1308 1353 1365 1271 1141 1171 1313 1141 916 784 725 753 263 118 133 330 230 188 204 144 92
1503 1490 1536 1580 1529 1424 1303 1282 1378 1187 1066 957 915 232 87 113 466 421 323 206 176 300
1730 1716 1732 1822 1853 1759 1588 1442 1466 1381 1181 1110 1125 259 77 19 390 332 294 200 213 177
1797 1714 1682 1810 1990 2053 1985 1835 1685 1730 1499 1150 1313 170 6 26 471 336 349 348 215 74
1977 1949 1817 1792 1859 1951 2153 2155 1954 1861 1696 1426 1245 850 0 0 584 535 442 320 280 142